DW5490 Randolph MA US current weather conditions

sailwx.info

Wind from 284 at 8 knots gusting 19

Air temperature 5.0° C
Dewpoint -4.6° C

Last reported at 2019-Dec-15 22:00 UTC.
Time now 2019-Dec-15 23:13 UTC

Location: N 42°12' W 071°04'.
View on Google Maps.

See reports from other nearby stations

  
Tides and Currents Weather Stations Pressure Air Temp Water Temp Dewpoint Dewpoint Depression Visibility Wind Speed Wind Dir Waves Ship Positions
date/time (UTC)wind fromknots sea level pressurealtimeterstation pressurevisibilityair tempwater tempwave heightnotes
2019-Dec-15 22:00 284 8 gusting 19 5.0
2019-Dec-15 21:48 247 6 gusting 15 5.0
2019-Dec-15 21:31 301 5 gusting 17 5.0
2019-Dec-15 21:16 240 7 gusting 18 5.6
2019-Dec-15 21:01 234 5 gusting 13 5.6
2019-Dec-15 20:46 320 8 gusting 17 6.1
2019-Dec-15 20:00 287 6 gusting 18 6.7
2019-Dec-15 19:46 289 8 gusting 19 7.2
2019-Dec-15 19:31 281 6 gusting 14 7.8
2019-Dec-15 19:16 249 7 gusting 20 7.2
2019-Dec-15 19:02 309 8 gusting 19 7.2
2019-Dec-15 18:46 281 6 gusting 23 7.2
2019-Dec-15 18:31 277 11 gusting 25 7.2
2019-Dec-15 18:17 252 7 gusting 21 7.2
2019-Dec-15 18:01 284 6 gusting 19 7.2
2019-Dec-15 17:46 296 6 gusting 18 7.2
2019-Dec-15 17:17 304 7 gusting 12 7.8
2019-Dec-15 17:00 292 6 gusting 15 7.2
2019-Dec-15 16:45 286 9 gusting 18 7.2
2019-Dec-15 16:17 307 6 gusting 19 7.2
2019-Dec-15 16:01 303 9 gusting 21 7.2
2019-Dec-15 15:46 279 7 gusting 19 7.2
2019-Dec-15 15:31 288 9 gusting 21 6.7
2019-Dec-15 15:16 346 9 gusting 20 7.2
2019-Dec-15 15:00 273 9 gusting 19 6.7
2019-Dec-15 14:46 271 8 gusting 23 6.1
2019-Dec-15 14:31 241 8 gusting 19 6.7
2019-Dec-15 14:15 299 7 gusting 15 6.7
2019-Dec-15 14:01 272 7 gusting 17 6.1
2019-Dec-15 13:45 272 6 gusting 27 6.7
2019-Dec-15 13:32 304 8 gusting 19 6.1
2019-Dec-15 13:16 243 11 gusting 19 6.1
2019-Dec-15 13:01 269 6 gusting 20 5.6
2019-Dec-15 12:45 273 8 gusting 17 5.6
2019-Dec-15 12:17 315 6 gusting 15 5.6
2019-Dec-15 12:00 261 5 gusting 19 5.6
2019-Dec-15 11:30 277 7 gusting 17 5.6
2019-Dec-15 11:16 257 6 gusting 19 5.6
2019-Dec-15 11:00 242 6 gusting 25 5.6
2019-Dec-15 10:31 287 6 gusting 13 5.6
2019-Dec-15 10:16 279 7 gusting 16 5.6
2019-Dec-15 10:01 255 4 gusting 13 5.6
2019-Dec-15 09:46 232 6 gusting 15 5.6
2019-Dec-15 09:31 262 6 gusting 19 6.1
2019-Dec-15 09:17 227 6 gusting 16 5.6
2019-Dec-15 09:00 279 6 gusting 15 5.6
2019-Dec-15 08:48 267 6 gusting 19 5.6
2019-Dec-15 08:30 277 7 gusting 15 5.6
2019-Dec-15 08:15 279 4 gusting 14 6.1
2019-Dec-15 08:02 305 6 gusting 15 6.1
2019-Dec-15 07:45 292 6 gusting 13 6.7
2019-Dec-15 07:15 284 6 gusting 14 7.8
2019-Dec-15 07:01 284 6 gusting 14 8.3
2019-Dec-15 06:46 318 8 gusting 23 9.4
2019-Dec-15 06:31 265 4 gusting 14 10.0
2019-Dec-15 06:16 238 6 gusting 16 10.0
2019-Dec-15 06:00 267 7 gusting 16 10.6
2019-Dec-15 05:45 239 7 gusting 16 10.6
2019-Dec-15 05:31 244 9 gusting 19 10.6
2019-Dec-15 05:15 283 7 gusting 15 10.6
2019-Dec-15 05:03 251 8 gusting 20 11.1
2019-Dec-15 04:47 257 12 gusting 21 11.1
2019-Dec-15 04:31 212 6 gusting 17 11.1
2019-Dec-15 04:16 238 11 gusting 17 11.7
2019-Dec-15 04:00 221 10 gusting 14 11.7
2019-Dec-15 03:45 255 8 gusting 16 11.7
2019-Dec-15 02:46 251 9 gusting 17 12.8
2019-Dec-15 02:30 240 6 gusting 21 12.8
2019-Dec-15 01:32 203 7 gusting 15 13.9
2019-Dec-15 01:18 230 6 gusting 21 13.9
2019-Dec-15 01:01 188 10 gusting 22 14.4
2019-Dec-15 00:45 253 11 gusting 21 14.4
2019-Dec-15 00:30 180 7 gusting 18 14.4
2019-Dec-14 23:46 216 6 gusting 14 14.4
2019-Dec-14 23:30 192 6 gusting 16 14.4
2019-Dec-14 23:16 227 6 gusting 19 15.0
2019-Dec-14 23:00 180 6 gusting 14 14.4
2019-Dec-14 22:47 234 6 gusting 13 14.4
2019-Dec-14 22:33 199 7 gusting 14 15.0
2019-Dec-14 22:16 198 4 gusting 13 15.0
2019-Dec-14 22:00 260 6 gusting 14 15.0
2019-Dec-14 21:46 196 5 gusting 16 15.0
2019-Dec-14 21:30 211 5 gusting 12 15.0
2019-Dec-14 21:00 185 3 gusting 7 15.0
2019-Dec-14 20:46 157 2 gusting 7 15.0
2019-Dec-14 20:16 184 2 gusting 6 15.0
2019-Dec-14 20:01 215 1 gusting 6 15.0
2019-Dec-14 19:46 165 3 gusting 6 15.0
2019-Dec-14 19:30 149 2 gusting 5 15.0
2019-Dec-14 19:02 217 1 gusting 6 15.0
2019-Dec-14 18:45 173 1 gusting 7 15.0
2019-Dec-14 18:31 227 5 gusting 9 15.0
2019-Dec-14 18:15 204 2 gusting 7 15.0
2019-Dec-14 17:48 196 3 gusting 8 15.0
2019-Dec-14 17:32 232 3 gusting 7 15.0
2019-Dec-14 17:17 219 5 gusting 12 15.0
2019-Dec-14 17:00 216 3 gusting 9 15.0
2019-Dec-14 16:45 251 6 gusting 10 15.0
2019-Dec-14 16:16 228 5 gusting 9 15.0
2019-Dec-14 16:01 212 1 gusting 5 14.4
2019-Dec-14 15:31 191 0 gusting 2 13.9
2019-Dec-14 15:16 153 13.9
2019-Dec-14 14:46 165 13.3
2019-Dec-14 14:31 132 1 gusting 4 13.3
2019-Dec-14 14:15 119 1 gusting 4 12.8
2019-Dec-14 14:00 105 0 gusting 3 12.8
2019-Dec-14 13:48 148 2 gusting 6 12.8
2019-Dec-14 13:31 142 2 gusting 6 12.8
2019-Dec-14 13:15 138 2 gusting 6 12.8
2019-Dec-14 13:00 124 1 gusting 8 12.8
2019-Dec-14 12:48 137 1 gusting 10 12.8
2019-Dec-14 12:33 139 2 gusting 8 12.8
2019-Dec-14 12:15 162 4 gusting 10 12.8
2019-Dec-14 12:02 123 0 gusting 6 12.8
2019-Dec-14 11:45 119 1 gusting 6 12.2
2019-Dec-14 11:30 130 2 gusting 6 11.7
2019-Dec-14 10:46 143 1 gusting 6 11.1
2019-Dec-14 10:30 119 3 gusting 6 11.1
2019-Dec-14 10:15 173 3 gusting 9 10.6
2019-Dec-14 09:48 121 1 gusting 8 10.0
2019-Dec-14 09:30 115 6 gusting 14 10.0
2019-Dec-14 09:02 084 2 gusting 9 10.0
2019-Dec-14 08:45 140 3 gusting 8 9.4
2019-Dec-14 08:31 163 5 gusting 13 9.4
2019-Dec-14 08:15 096 3 gusting 12 8.9
2019-Dec-14 08:00 086 2 gusting 9 8.3
2019-Dec-14 07:46 080 4 gusting 7 7.8
2019-Dec-14 07:30 081 2 gusting 7 7.8
2019-Dec-14 07:02 059 1 gusting 6 7.2
2019-Dec-14 06:46 076 1 gusting 6 7.2
2019-Dec-14 06:30 042 1 gusting 6 7.2
2019-Dec-14 05:46 073 0 gusting 3 7.2
2019-Dec-14 05:30 065 1 gusting 3 7.2
2019-Dec-14 05:02 071 0 gusting 4 7.2
2019-Dec-14 04:32 096 1 gusting 5 7.2
2019-Dec-14 04:16 085 0 gusting 5 7.2
2019-Dec-14 04:00 088 0 gusting 4 6.7
2019-Dec-14 03:46 101 0 gusting 2 6.7
2019-Dec-14 03:31 095 0 gusting 5 6.1
2019-Dec-14 03:15 092 0 gusting 2 6.1
2019-Dec-14 03:00 092 0 gusting 2 5.6
2019-Dec-14 02:47 094 0 gusting 2 5.6
2019-Dec-14 02:31 094 0 gusting 2 5.6
2019-Dec-14 02:15 094 5.6
2019-Dec-14 02:02 094 0 gusting 1 5.6
2019-Dec-14 01:47 094 5.0
2019-Dec-14 01:30 094 0 gusting 2 5.6
2019-Dec-14 01:16 090 0 gusting 1 5.0
2019-Dec-14 01:01 090 0 gusting 1 5.0
2019-Dec-14 00:45 090 0 gusting 1 5.0
2019-Dec-14 00:30 090 5.0
2019-Dec-14 00:01 090 0 gusting 1 5.0
2019-Dec-13 23:47 090 0 gusting 1 4.4
2019-Dec-13 23:32 090 4.4
2019-Dec-13 23:16 090 4.4
2019-Dec-13 23:02 090 4.4